Location: Artiguedieu
(43.5000°N, 0.5454°E)
Time: 09:51:02
(UTC+00:00)

Explorer 7 - Pass Details

Date: 10 August 2021
Orbit: 484 x 676 km, 50.3° (Epoch: 22 September)

Event Time Altitude Azimuth Distance (km) Brightness Sun altitude
Rises 00:50:41 0° 213° (SSW) 2,557 - -30.0°
Reaches altitude 10° 00:53:01 10° 202° (SSW) 1,666 - -29.9°
Maximum altitude 00:56:21 31° 139° (SE) 877 - -29.7°
Drops below altitude 10° 00:59:40 10° 77° (ENE) 1,666 - -29.6°
Exits shadow 00:59:55 - 75° (ENE) 1,758 9.7 -29.5°
Sets 01:02:00 0° 66° (ENE) 2,558 10.8 -29.4°
